When you browse on this site, cookies collect data to enhance your experience and personalize the content and advertising you see.
Visit our Privacy Policy to learn more. By continuing to use the site, you agree to this use of cookies and data.
  • In France
  • List of Countries
  • For 7 days
  • Water Temperature
  • Satellite Maps
  • Weather Map
  • Weather Widgets
  • user-avatar
    Login

    Hourly Weather Melbourne

    Today, 25 May, Saturday

    Time Temperature Precipitation Wind Pressure Humidity
    00:00 +15°C° 0.2 mm 5 mps 759 mmHg 72%
    01:00 +16°C° 0.2 mm 3 mps 759 mmHg 75%
    02:00 +14°C° 0 mm 3 mps 759 mmHg 78%
    03:00 +14°C° 0 mm 3 mps 759 mmHg 80%
    04:00 +14°C° 0 mm 3 mps 759 mmHg 84%
    05:00 +13°C° 0 mm 3 mps 758 mmHg 83%
    06:00 +13°C° 0 mm 4 mps 758 mmHg 82%
    07:00 +13°C° 0 mm 4 mps 758 mmHg 82%
    08:00 +14°C° 0 mm 4 mps 758 mmHg 76%
    09:00 +15°C° 0 mm 4 mps 758 mmHg 70%
    10:00 +17°C° 0 mm 4 mps 758 mmHg 63%
    11:00 +17°C° 0 mm 5 mps 758 mmHg 59%
    12:00 +19°C° 0 mm 5 mps 757 mmHg 54%
    13:00 +20°C° 0 mm 6 mps 757 mmHg 49%
    14:00 +19°C° 0.1 mm 5 mps 757 mmHg 53%
    15:00 +19°C° 0.1 mm 5 mps 756 mmHg 57%
    16:00 +17°C° 0.1 mm 5 mps 756 mmHg 61%
    17:00 +16°C° 1.3 mm 5 mps 756 mmHg 66%
    18:00 +16°C° 1.3 mm 5 mps 756 mmHg 72%
    19:00 +15°C° 1.3 mm 5 mps 757 mmHg 78%
    20:00 +14°C° 0.6 mm 5 mps 757 mmHg 77%
    21:00 +14°C° 0.6 mm 4 mps 757 mmHg 77%
    22:00 +13°C° 0.6 mm 4 mps 757 mmHg 77%
    23:00 +12°C° 0 mm 5 mps 757 mmHg 77%

    Tomorrow, 26 May, Sunday

    Time Temperature Precipitation Wind Pressure Humidity
    00:00 +12°C° 0 mm 5 mps 757 mmHg 76%
    01:00 +10°C° 0 mm 5 mps 757 mmHg 76%
    02:00 +10°C° 0 mm 5 mps 758 mmHg 76%
    03:00 +9°C° 0 mm 5 mps 758 mmHg 76%
    04:00 +9°C° 0 mm 5 mps 758 mmHg 77%
    05:00 +8°C° 0 mm 4 mps 758 mmHg 77%
    06:00 +8°C° 0 mm 4 mps 759 mmHg 77%
    07:00 +8°C° 0 mm 4 mps 759 mmHg 77%
    08:00 +10°C° 0 mm 4 mps 759 mmHg 72%
    09:00 +10°C° 0 mm 5 mps 759 mmHg 67%
    10:00 +12°C° 0 mm 5 mps 759 mmHg 62%
    11:00 +13°C° 0 mm 5 mps 758 mmHg 58%
    12:00 +14°C° 0 mm 6 mps 758 mmHg 54%
    13:00 +15°C° 0 mm 6 mps 757 mmHg 49%
    14:00 +15°C° 0 mm 6 mps 756 mmHg 52%
    15:00 +14°C° 0 mm 7 mps 756 mmHg 54%
    16:00 +14°C° 0 mm 7 mps 755 mmHg 56%
    17:00 +14°C° 0 mm 7 mps 755 mmHg 58%
    18:00 +12°C° 0 mm 8 mps 754 mmHg 60%
    19:00 +12°C° 0 mm 8 mps 754 mmHg 62%
    20:00 +11°C° 2 mm 8 mps 754 mmHg 69%
    21:00 +11°C° 2 mm 8 mps 754 mmHg 76%
    22:00 +10°C° 2 mm 7 mps 754 mmHg 83%
    23:00 +9°C° 0.9 mm 7 mps 754 mmHg 79%

    Day after tomorrow, 27 May, Monday

    Time Temperature Precipitation Wind Pressure Humidity
    00:00 +9°C° 0.9 mm 7 mps 754 mmHg 75%
    01:00 +8°C° 0.9 mm 7 mps 754 mmHg 71%
    02:00 +8°C° 0 mm 7 mps 754 mmHg 71%
    03:00 +6°C° 0 mm 7 mps 754 mmHg 71%
    04:00 +6°C° 0 mm 7 mps 754 mmHg 70%
    05:00 +6°C° 0.2 mm 8 mps 754 mmHg 71%
    06:00 +6°C° 0.2 mm 8 mps 754 mmHg 71%
    07:00 +6°C° 0.2 mm 8 mps 754 mmHg 72%
    08:00 +7°C° 0.1 mm 9 mps 755 mmHg 67%
    09:00 +8°C° 0.1 mm 9 mps 755 mmHg 62%
    10:00 +8°C° 0.1 mm 9 mps 756 mmHg 57%
    11:00 +10°C° 0.3 mm 9 mps 756 mmHg 56%
    12:00 +10°C° 0.3 mm 9 mps 756 mmHg 55%
    13:00 +11°C° 0.3 mm 9 mps 756 mmHg 53%
    14:00 +11°C° 0.2 mm 8 mps 757 mmHg 52%
    15:00 +11°C° 0.2 mm 7 mps 757 mmHg 51%
    16:00 +10°C° 0.2 mm 6 mps 757 mmHg 50%
    17:00 +10°C° 0 mm 6 mps 758 mmHg 55%
    18:00 +9°C° 0 mm 5 mps 758 mmHg 59%
    19:00 +8°C° 0 mm 5 mps 759 mmHg 64%
    20:00 +8°C° 0 mm 5 mps 759 mmHg 67%
    21:00 +8°C° 0 mm 5 mps 759 mmHg 70%
    22:00 +8°C° 0 mm 5 mps 760 mmHg 73%
    23:00 +8°C° 0 mm 5 mps 759 mmHg 72%

    28 May, Tuesday

    Time Temperature Precipitation Wind Pressure Humidity
    00:00 +8°C° 0 mm 5 mps 759 mmHg 71%
    01:00 +8°C° 0 mm 5 mps 759 mmHg 71%
    02:00 +8°C° 0 mm 5 mps 758 mmHg 72%
    03:00 +9°C° 0 mm 5 mps 758 mmHg 73%
    04:00 +9°C° 0 mm 5 mps 758 mmHg 74%
    05:00 +9°C° 0 mm 5 mps 757 mmHg 74%
    06:00 +9°C° 0 mm 5 mps 757 mmHg 74%
    07:00 +9°C° 0 mm 5 mps 757 mmHg 74%
    08:00 +10°C° 0 mm 5 mps 757 mmHg 71%
    09:00 +11°C° 0 mm 6 mps 757 mmHg 67%
    10:00 +13°C° 0 mm 6 mps 757 mmHg 63%
    11:00 +13°C° 0.1 mm 6 mps 756 mmHg 66%
    12:00 +13°C° 0.1 mm 6 mps 755 mmHg 68%
    13:00 +11°C° 0.1 mm 6 mps 755 mmHg 71%
    14:00 +13°C° 0.2 mm 6 mps 754 mmHg 70%
    15:00 +13°C° 0.2 mm 6 mps 754 mmHg 70%
    16:00 +13°C° 0.2 mm 6 mps 753 mmHg 69%
    17:00 +13°C° 0.3 mm 6 mps 753 mmHg 69%
    18:00 +11°C° 0.3 mm 6 mps 752 mmHg 70%
    19:00 +11°C° 0.3 mm 7 mps 752 mmHg 70%
    20:00 +11°C° 0.6 mm 7 mps 752 mmHg 70%
    21:00 +11°C° 0.6 mm 7 mps 752 mmHg 71%
    22:00 +10°C° 0.6 mm 8 mps 751 mmHg 71%
    23:00 +10°C° 0.5 mm 8 mps 751 mmHg 71%

    29 May, Wednesday

    Time Temperature Precipitation Wind Pressure Humidity
    00:00 +9°C° 0.5 mm 8 mps 751 mmHg 71%
    01:00 +7°C° 0.5 mm 8 mps 750 mmHg 72%
    02:00 +7°C° 0.3 mm 8 mps 750 mmHg 72%
    03:00 +7°C° 0.3 mm 8 mps 750 mmHg 71%
    04:00 +6°C° 0.3 mm 8 mps 750 mmHg 71%
    05:00 +6°C° 0.2 mm 8 mps 750 mmHg 71%
    06:00 +6°C° 0.2 mm 8 mps 751 mmHg 70%
    07:00 +6°C° 0.2 mm 7 mps 751 mmHg 69%
    08:00 +6°C° 0.2 mm 7 mps 751 mmHg 67%
    09:00 +7°C° 0.2 mm 8 mps 752 mmHg 64%
    10:00 +7°C° 0.2 mm 8 mps 752 mmHg 62%
    11:00 +9°C° 0.3 mm 8 mps 752 mmHg 59%
    12:00 +9°C° 0.3 mm 8 mps 752 mmHg 57%
    13:00 +9°C° 0.3 mm 8 mps 753 mmHg 55%
    14:00 +9°C° 0.4 mm 7 mps 753 mmHg 56%
    15:00 +9°C° 0.4 mm 7 mps 753 mmHg 57%
    16:00 +8°C° 0.4 mm 7 mps 754 mmHg 58%
    17:00 +8°C° 0.4 mm 6 mps 754 mmHg 62%
    18:00 +7°C° 0.4 mm 6 mps 754 mmHg 66%
    19:00 +6°C° 0.4 mm 5 mps 754 mmHg 70%
    20:00 +7°C° 1.8 mm 5 mps 755 mmHg 74%
    21:00 +7°C° 1.8 mm 6 mps 755 mmHg 78%
    22:00 +7°C° 1.8 mm 6 mps 756 mmHg 82%
    23:00 +6°C° 0.3 mm 5 mps 757 mmHg 81%

    30 May, Thursday

    Time Temperature Precipitation Wind Pressure Humidity
    00:00 +6°C° 0.3 mm 4 mps 758 mmHg 79%
    01:00 +7°C° 0.3 mm 3 mps 759 mmHg 78%
    02:00 +6°C° 0.5 mm 4 mps 759 mmHg 78%
    03:00 +6°C° 0.5 mm 4 mps 760 mmHg 78%
    04:00 +6°C° 0.5 mm 4 mps 761 mmHg 79%
    05:00 +6°C° 0.7 mm 4 mps 762 mmHg 79%
    06:00 +7°C° 0.7 mm 4 mps 763 mmHg 79%
    07:00 +7°C° 0.7 mm 5 mps 764 mmHg 79%
    08:00 +8°C° 0.4 mm 5 mps 765 mmHg 76%
    09:00 +9°C° 0.4 mm 5 mps 765 mmHg 73%
    10:00 +9°C° 0.4 mm 5 mps 766 mmHg 69%
    11:00 +10°C° 0.3 mm 6 mps 766 mmHg 67%
    12:00 +10°C° 0.3 mm 6 mps 767 mmHg 65%
    13:00 +11°C° 0.3 mm 6 mps 767 mmHg 63%
    14:00 +11°C° 0.1 mm 6 mps 767 mmHg 62%
    15:00 +12°C° 0.1 mm 5 mps 768 mmHg 62%
    16:00 +10°C° 0.1 mm 5 mps 768 mmHg 62%
    17:00 +10°C° 0.1 mm 5 mps 769 mmHg 64%
    18:00 +10°C° 0.1 mm 4 mps 769 mmHg 67%
    19:00 +10°C° 0.1 mm 4 mps 770 mmHg 70%
    20:00 +10°C° 0.1 mm 4 mps 771 mmHg 72%
    21:00 +10°C° 0.1 mm 4 mps 771 mmHg 73%
    22:00 +10°C° 0.1 mm 4 mps 772 mmHg 75%
    23:00 +8°C° 0.1 mm 4 mps 772 mmHg 76%
    Show more